Location: Alto Ña Paula
(10.3988°N, 66.8165°W)
Time: 18:53:44
(UTC+00:00)

Daily predictions for brighter satellites

Satellite Brightness Start Highest point End
(mag) Time Altitude Azimuth Time Altitude Azimuth Time Altitude Azimuth
Ariane V96 H10-3 4.4 22:10:43 10° WSW 22:13:21 35° S 22:20:33 10° ESE
DNEPR-1 R/B 4.3 22:13:54 10° NNW 22:19:20 73° ENE 22:26:00 10° SSE
Thor Agena Rocket 4.1 22:14:29 10° S 22:19:40 67° WSW 22:24:53 10° NNW
NATO 3D Rocket 4.3 22:19:18 10° W 22:25:03 67° NNW 22:33:21 10° ENE
SAR-Lupe-4 3.7 22:23:02 10° S 22:26:37 83° W 22:30:10 10° NNW
Cosmos 1455 Rocket 4.1 22:23:24 10° SSE 22:26:54 25° E 22:30:23 10° NE
COSMO-SKYMED 1 2.4 22:22:59 10° NNE 22:27:04 73° ESE 22:31:10 10° S
Centaur D-1AR AC-39 3.2 22:24:45 10° SSW 22:27:48 21° SSE 22:30:53 10° ESE
Cosmos 2058 3.4 22:26:51 10° NNE 22:30:31 36° E 22:34:11 10° SSE
CZ-2D R/B 2.8 22:27:25 10° S 22:30:34 80° W 22:33:42 10° NNW
AQUARIUS 4.1 22:26:38 10° SSE 22:30:57 60° ENE 22:35:17 10° N
Cosmos 1602 3.7 22:28:53 10° NNE 22:31:42 35° E 22:34:32 10° SSE
MOS 1 Rocket 3.3 22:28:30 10° SSE 22:32:32 43° ENE 22:36:34 10° N
Meteor 2-12 Rocket 4.5 22:26:41 10° N 22:32:44 89° ENE 22:38:46 10° S
CAT/Thesee 2.6 22:30:28 10° W 22:33:02 71° S 22:34:50 12° E
Cosmos 1850 Rocket 4.1 22:32:39 10° S 22:37:47 56° ESE 22:42:52 10° NNE
GPS 2-17 Rocket1 3.6 22:34:05 10° SW 22:38:27 47° SSE 22:42:21 13° E
ARIANE 5 R/B 2.8 22:35:46 10° S 22:40:43 71° WSW 22:45:40 10° NNW
Meteor 2-1 Rocket 4.3 22:41:54 10° S 22:47:42 88° W 22:53:36 10° N
Cosmos 2369 Rocket 2.1 22:42:14 10° SSW 22:47:47 83° ESE 22:53:22 10° NNE
Okean 1 Rocket 3.8 22:43:32 10° SSW 22:47:53 57° W 22:52:12 10° N
Cosmos 1862 3.3 22:45:52 10° NNE 22:49:20 44° E 22:52:49 10° SSE
Cosmos 2297 3.7 22:43:57 10° SSW 22:49:40 83° ESE 22:55:22 10° NNE
Ariane 3 Deb 4.4 22:50:23 10° SW 22:53:00 20° SSE 22:57:03 10° ESE
Cosmos 1634 Rocket 4.2 22:47:12 10° SSE 22:53:15 49° E 22:59:15 10° NNE
Cosmos 2082 Rocket 3.0 22:50:23 10° NNE 22:55:06 28° ENE 22:59:50 10° SE
Ariane H10+ 3.5 22:50:12 10° W 22:56:25 41° SSW 22:58:40 14° ESE
Cosmos 468 Rocket 4.2 22:53:55 10° N 22:58:44 42° ENE 23:03:32 10° SSE
Cosmos 2228 3.8 22:55:31 10° SSE 22:58:59 26° E 22:59:52 24° ENE
Meteor 1-27 4.5 22:54:25 10° SSE 22:59:54 47° E 23:05:26 10° NNE
ATLAS 5 CENTAUR R/B 2.7 22:57:47 10° NNW 23:03:33 73° WSW 23:10:19 10° SSE
YAOGAN 1 2.7 23:00:45 10° SSE 23:04:49 47° ENE 23:08:54 10° N
Cosmos 1315 Rocket 3.4 23:03:53 10° SSE 23:07:11 31° E 23:07:11 31° E
USA 215 4.2 23:06:07 22° ENE 23:07:24 24° NE 23:12:20 10° N
Iridium 51 3.3 23:08:22 10° S 23:11:13 87° W 23:12:31 29° N
Cosmos 292 Rocket 3.9 23:08:11 10° S 23:12:45 48° ESE 23:14:36 31° NE
ATLAS 2A CENTAUR R/B 4.5 23:02:47 10° W 23:14:57 25° NNW 23:18:43 14° NNE
SPOT 1/Viking Rocket 3.6 23:11:49 10° S 23:16:57 81° WSW 23:22:07 10° NNW
SL-19 R/B 4.1 23:11:53 10° SSE 23:17:09 59° ENE 23:22:15 10° N
Resurs 1-3 3.4 23:15:31 10° SSE 23:19:48 74° ENE 23:24:04 10° N
Ariane H10-3 2.6 23:17:34 10° WSW 23:19:59 50° S 23:21:13 33° ESE
Yuri Rocket 3.1 23:16:25 10° WSW 23:21:51 77° SSE 23:23:06 47° ENE
Cosmos 1356 Rocket 3.1 23:20:41 10° S 23:24:26 60° E 23:24:26 60° E
Tiangong 0.9 23:22:46 10° W 23:24:50 16° SW 23:26:54 10° S
GPS 2-15 Rocket1 4.4 23:22:59 10° NW 23:26:52 25° N 23:27:10 25° N
Spot 4 Rocket 4.0 23:22:02 10° S 23:27:08 81° WSW 23:32:12 10° NNW
RESURS DK-1 3.4 23:27:35 10° NNW 23:31:21 43° WSW 23:35:07 10° S
SWIFT 4.0 23:31:23 10° SSW 23:33:05 17° S 23:33:05 17° S
Cosmos 2279 Rocket 3.8 23:32:07 10° S 23:38:18 87° E 23:43:07 18° N
Delta 2 Rocket 4.2 23:36:42 10° WNW 23:40:31 43° SW 23:41:14 38° S
Cosmos 1092 Rocket 3.8 23:35:41 10° N 23:41:47 68° E 23:47:52 10° SSE
Ariane H10+ 3.9 23:34:32 10° WSW 23:42:19 24° SSW 23:43:54 19° SSE
Cosmos 2026 Rocket 3.9 23:40:15 10° N 23:46:25 89° E 23:52:41 10° S
